This is the latest recevied weather packets stored in our database for station/object WC4PEM-1. If no packets are shown the sender has not sent any weather packets the latest 10 day(s).
| Time | Temp. | Humidity | Pressure | Rain* | Wind** | Luminosity | Snow |
|---|---|---|---|---|---|---|---|
| 1777830809 | 23.89° C | 67% | 1016.8 hPa | 0 mm | - | 381 W/m² | - |
| 1777830708 | 23.89° C | 67% | 1016.7 hPa | 0 mm | - | 450 W/m² | - |
| 1777830509 | 23.89° C | 67% | 1016.7 hPa | 0 mm | - | 450 W/m² | - |
| 1777830209 | 23.89° C | 67% | 1016.8 hPa | 0 mm | - | 900 W/m² | - |
| 1777829909 | 23.33° C | 66% | 1016.8 hPa | 0 mm | - | 482 W/m² | - |
| 1777829609 | 23.89° C | 67% | 1016.8 hPa | 0 mm | - | 752 W/m² | - |
| 1777829413 | 23.33° C | 69% | 1016.9 hPa | 0 mm | - | 633 W/m² | - |
| 1777829320 | 22.78° C | 70% | 1016.9 hPa | 0 mm | - | 615 W/m² | - |
| 1777829309 | 23.33° C | 69% | 1016.9 hPa | 0 mm | - | 633 W/m² | - |
| 1777829009 | 22.78° C | 70% | 1016.9 hPa | 0 mm | - | 615 W/m² | - |
| 1777828709 | 22.78° C | 69% | 1017 hPa | 0 mm | - | 489 W/m² | - |
| 1777828409 | 22.78° C | 69% | 1016.9 hPa | 0 mm | - | 434 W/m² | - |
| 1777828109 | 22.78° C | 69% | 1017 hPa | 0 mm | - | 417 W/m² | - |
| 1777827809 | 23.33° C | 71% | 1016.9 hPa | 0 mm | - | 1035 W/m² | - |
| 1777827509 | 22.78° C | 72% | 1016.9 hPa | 0 mm | - | 582 W/m² | - |
| 1777827209 | 22.22° C | 71% | 1017 hPa | 0 mm | - | 564 W/m² | - |
| 1777826909 | 22.22° C | 72% | 1017.1 hPa | 0 mm | - | 559 W/m² | - |
| 1777826609 | 22.22° C | 73% | 1017.3 hPa | 0 mm | - | 499 W/m² | - |
| 1777826309 | 22.22° C | 72% | 1017.3 hPa | 0 mm | - | 545 W/m² | - |
| 1777826284 | 22.22° C | 72% | 1017.3 hPa | 0 mm | - | 577 W/m² | - |
| 1777826009 | 22.22° C | 72% | 1017.3 hPa | 0 mm | - | 577 W/m² | - |
| 1777825709 | 22.22° C | 74% | 1017.3 hPa | 0 mm | - | 780 W/m² | - |
| 1777825409 | 21.67° C | 74% | 1017.3 hPa | 0 mm | - | 596 W/m² | - |
| 1777825109 | 21.11° C | 75% | 1017.3 hPa | 0 mm | - | 369 W/m² | - |
| 1777824809 | 21.11° C | 76% | 1017.4 hPa | 0 mm | - | 359 W/m² | - |
* Rain latest hour (hover to see other rain measurements)
** Current wind speed in m/s (hover to see current wind gust speed)